�p�l������,�ʖ���,����,����,�J��
�͐쐅�ʏ��,吐��@������,2024/4/1 0:00,-1.98,0
�͐쐅�ʏ��,吐��@������,2024/4/1 0:10,-1.98,0
�͐쐅�ʏ��,吐��@������,2024/4/1 0:20,-1.98,0
�͐쐅�ʏ��,吐��@������,2024/4/1 0:30,-1.98,0
�͐쐅�ʏ��,吐��@������,2024/4/1 0:40,-1.98,0
�͐쐅�ʏ��,吐��@������,2024/4/1 0:50,-1.98,0
�͐쐅�ʏ��,吐��@������,2024/4/1 1:00,-1.98,0
�͐쐅�ʏ��,吐��@������,2024/4/1 1:10,-1.98,0
�͐쐅�ʏ��,吐��@������,2024/4/1 1:20,-1.98,0
�͐쐅�ʏ��,吐��@������,2024/4/1 1:30,-1.98,0
�͐쐅�ʏ��,吐��@������,2024/4/1 1:40,-1.98,0
�͐쐅�ʏ��,吐��@������,2024/4/1 1:50,-1.98,0
�͐쐅�ʏ��,吐��@������,2024/4/1 2:00,-1.98,0
�͐쐅�ʏ��,吐��@������,2024/4/1 2:10,-1.98,0
�͐쐅�ʏ��,吐��@������,2024/4/1 2:20,-1.98,0
�͐쐅�ʏ��,吐��@������,2024/4/1 2:30,-1.98,0
�͐쐅�ʏ��,吐��@������,2024/4/1 2:40,-1.98,0
�͐쐅�ʏ��,吐��@������,2024/4/1 2:50,-1.98,0
�͐쐅�ʏ��,吐��@������,2024/4/1 3:00,-1.98,0
�͐쐅�ʏ��,吐��@������,2024/4/1 3:10,-1.98,0
�͐쐅�ʏ��,吐��@������,2024/4/1 3:20,-1.98,0
�͐쐅�ʏ��,吐��@������,2024/4/1 3:30,-1.98,0
�͐쐅�ʏ��,吐��@������,2024/4/1 3:40,-1.98,0
�͐쐅�ʏ��,吐��@������,2024/4/1 3:50,-1.98,0
�͐쐅�ʏ��,吐��@������,2024/4/1 4:00,-1.98,0
�͐쐅�ʏ��,吐��@������,2024/4/1 4:10,-1.98,0
�͐쐅�ʏ��,吐��@������,2024/4/1 4:20,-1.98,0
�͐쐅�ʏ��,吐��@������,2024/4/1 4:30,-1.98,0
�͐쐅�ʏ��,吐��@������,2024/4/1 4:40,-1.98,0
�͐쐅�ʏ��,吐��@������,2024/4/1 4:50,-1.98,0
�͐쐅�ʏ��,吐��@������,2024/4/1 5:00,-1.98,0
�͐쐅�ʏ��,吐��@������,2024/4/1 5:10,-1.98,0
�͐쐅�ʏ��,吐��@������,2024/4/1 5:20,-1.98,0
�͐쐅�ʏ��,吐��@������,2024/4/1 5:30,-1.98,0
�͐쐅�ʏ��,吐��@������,2024/4/1 5:40,-1.98,0
�͐쐅�ʏ��,吐��@������,2024/4/1 5:50,-1.98,0
�͐쐅�ʏ��,吐��@������,2024/4/1 6:00,-1.98,0
�͐쐅�ʏ��,吐��@������,2024/4/1 6:10,-1.98,0
�͐쐅�ʏ��,吐��@������,2024/4/1 6:20,-1.98,0
�͐쐅�ʏ��,吐��@������,2024/4/1 6:30,-1.98,0
�͐쐅�ʏ��,吐��@������,2024/4/1 6:40,-1.98,0
�͐쐅�ʏ��,吐��@������,2024/4/1 6:50,-1.98,0
�͐쐅�ʏ��,吐��@������,2024/4/1 7:00,-1.98,0
�͐쐅�ʏ��,吐��@������,2024/4/1 7:10,-1.98,0
�͐쐅�ʏ��,吐��@������,2024/4/1 7:20,-1.98,0
�͐쐅�ʏ��,吐��@������,2024/4/1 7:30,-1.98,0
�͐쐅�ʏ��,吐��@������,2024/4/1 7:40,-1.98,0
�͐쐅�ʏ��,吐��@������,2024/4/1 7:50,-1.98,0
�͐쐅�ʏ��,吐��@������,2024/4/1 8:00,-1.98,0
�͐쐅�ʏ��,吐��@������,2024/4/1 8:10,-1.98,0
�͐쐅�ʏ��,吐��@������,2024/4/1 8:20,-1.98,0
�͐쐅�ʏ��,吐��@������,2024/4/1 8:30,-1.98,0
�͐쐅�ʏ��,吐��@������,2024/4/1 8:40,-1.98,0
�͐쐅�ʏ��,吐��@������,2024/4/1 8:50,-1.98,0
�͐쐅�ʏ��,吐��@������,2024/4/1 9:00,-1.98,0
�͐쐅�ʏ��,吐��@������,2024/4/1 9:10,-1.98,0
�͐쐅�ʏ��,吐��@������,2024/4/1 9:20,-1.98,0
�͐쐅�ʏ��,吐��@������,2024/4/1 9:30,-1.98,0
�͐쐅�ʏ��,吐��@������,2024/4/1 9:40,-1.98,0
�͐쐅�ʏ��,吐��@������,2024/4/1 9:50,-1.98,0
�͐쐅�ʏ��,吐��@������,2024/4/1 10:00,-1.98,0
�͐쐅�ʏ��,吐��@������,2024/4/1 10:10,-1.98,0
�͐쐅�ʏ��,吐��@������,2024/4/1 10:20,-1.98,0
�͐쐅�ʏ��,吐��@������,2024/4/1 10:30,-1.98,0
�͐쐅�ʏ��,吐��@������,2024/4/1 10:40,-1.98,0
�͐쐅�ʏ��,吐��@������,2024/4/1 10:50,-1.98,0
�͐쐅�ʏ��,吐��@������,2024/4/1 11:00,-1.98,0
�͐쐅�ʏ��,吐��@������,2024/4/1 11:10,-1.98,0
�͐쐅�ʏ��,吐��@������,2024/4/1 11:20,-1.98,0
�͐쐅�ʏ��,吐��@������,2024/4/1 11:30,-1.98,0
�͐쐅�ʏ��,吐��@������,2024/4/1 11:40,-1.98,0
�͐쐅�ʏ��,吐��@������,2024/4/1 11:50,-1.98,0
�͐쐅�ʏ��,吐��@������,2024/4/1 12:00,-1.98,0
�͐쐅�ʏ��,吐��@������,2024/4/1 12:10,-1.98,0
�͐쐅�ʏ��,吐��@������,2024/4/1 12:20,-1.98,0
�͐쐅�ʏ��,吐��@������,2024/4/1 12:30,-1.98,0
�͐쐅�ʏ��,吐��@������,2024/4/1 12:40,-1.98,0
�͐쐅�ʏ��,吐��@������,2024/4/1 12:50,-1.98,0
�͐쐅�ʏ��,吐��@������,2024/4/1 13:00,-1.98,0
�͐쐅�ʏ��,吐��@������,2024/4/1 13:10,-1.98,0
�͐쐅�ʏ��,吐��@������,2024/4/1 13:20,-1.98,0
�͐쐅�ʏ��,吐��@������,2024/4/1 13:30,-1.98,0
�͐쐅�ʏ��,吐��@������,2024/4/1 13:40,-1.98,0
�͐쐅�ʏ��,吐��@������,2024/4/1 13:50,-1.98,0
�͐쐅�ʏ��,吐��@������,2024/4/1 14:00,-1.98,0
�͐쐅�ʏ��,吐��@������,2024/4/1 14:10,-1.98,0
�͐쐅�ʏ��,吐��@������,2024/4/1 14:20,-1.98,0
�͐쐅�ʏ��,吐��@������,2024/4/1 14:30,-1.98,0
�͐쐅�ʏ��,吐��@������,2024/4/1 14:40,-1.98,0
�͐쐅�ʏ��,吐��@������,2024/4/1 14:50,-1.98,0
�͐쐅�ʏ��,吐��@������,2024/4/1 15:00,-1.98,0
�͐쐅�ʏ��,吐��@������,2024/4/1 15:10,-1.98,0
�͐쐅�ʏ��,吐��@������,2024/4/1 15:20,-1.98,0
�͐쐅�ʏ��,吐��@������,2024/4/1 15:30,-1.98,0
�͐쐅�ʏ��,吐��@������,2024/4/1 15:40,-1.98,0
�͐쐅�ʏ��,吐��@������,2024/4/1 15:50,-1.98,0
�͐쐅�ʏ��,吐��@������,2024/4/1 16:00,-1.98,0
�͐쐅�ʏ��,吐��@������,2024/4/1 16:10,-1.98,0
�͐쐅�ʏ��,吐��@������,2024/4/1 16:20,-1.98,0
�͐쐅�ʏ��,吐��@������,2024/4/1 16:30,-1.98,0
�͐쐅�ʏ��,吐��@������,2024/4/1 16:40,-1.98,0
�͐쐅�ʏ��,吐��@������,2024/4/1 16:50,-1.98,0
�͐쐅�ʏ��,吐��@������,2024/4/1 17:00,-1.98,0
�͐쐅�ʏ��,吐��@������,2024/4/1 17:10,-1.98,0
�͐쐅�ʏ��,吐��@������,2024/4/1 17:20,-1.98,0
�͐쐅�ʏ��,吐��@������,2024/4/1 17:30,-1.98,0
�͐쐅�ʏ��,吐��@������,2024/4/1 17:40,-1.98,0
�͐쐅�ʏ��,吐��@������,2024/4/1 17:50,-1.98,0
�͐쐅�ʏ��,吐��@������,2024/4/1 18:00,-1.98,0
�͐쐅�ʏ��,吐��@������,2024/4/1 18:10,-1.98,0
�͐쐅�ʏ��,吐��@������,2024/4/1 18:20,-1.98,0
�͐쐅�ʏ��,吐��@������,2024/4/1 18:30,-1.98,0
�͐쐅�ʏ��,吐��@������,2024/4/1 18:40,-1.98,0
�͐쐅�ʏ��,吐��@������,2024/4/1 18:50,-1.98,0
�͐쐅�ʏ��,吐��@������,2024/4/1 19:00,-1.98,0
�͐쐅�ʏ��,吐��@������,2024/4/1 19:10,-1.98,0
�͐쐅�ʏ��,吐��@������,2024/4/1 19:20,-1.98,0
�͐쐅�ʏ��,吐��@������,2024/4/1 19:30,-1.98,0
�͐쐅�ʏ��,吐��@������,2024/4/1 19:40,-1.98,0
�͐쐅�ʏ��,吐��@������,2024/4/1 19:50,-1.98,0
�͐쐅�ʏ��,吐��@������,2024/4/1 20:00,-1.98,0
�͐쐅�ʏ��,吐��@������,2024/4/1 20:10,-1.98,0
�͐쐅�ʏ��,吐��@������,2024/4/1 20:20,-1.98,0
�͐쐅�ʏ��,吐��@������,2024/4/1 20:30,-1.98,0
�͐쐅�ʏ��,吐��@������,2024/4/1 20:40,-1.98,0
�͐쐅�ʏ��,吐��@������,2024/4/1 20:50,-1.98,0
�͐쐅�ʏ��,吐��@������,2024/4/1 21:00,-1.98,0
�͐쐅�ʏ��,吐��@������,2024/4/1 21:10,-1.98,0
�͐쐅�ʏ��,吐��@������,2024/4/1 21:20,-1.98,0
�͐쐅�ʏ��,吐��@������,2024/4/1 21:30,-1.98,0
�͐쐅�ʏ��,吐��@������,2024/4/1 21:40,-1.98,0
�͐쐅�ʏ��,吐��@������,2024/4/1 21:50,-1.98,0
�͐쐅�ʏ��,吐��@������,2024/4/1 22:00,-1.98,0
�͐쐅�ʏ��,吐��@������,2024/4/1 22:10,-1.98,0
�͐쐅�ʏ��,吐��@������,2024/4/1 22:20,-1.98,0
�͐쐅�ʏ��,吐��@������,2024/4/1 22:30,-1.98,0
�͐쐅�ʏ��,吐��@������,2024/4/1 22:40,-1.98,0
�͐쐅�ʏ��,吐��@������,2024/4/1 22:50,-1.98,0
�͐쐅�ʏ��,吐��@������,2024/4/1 23:00,-1.98,0
�͐쐅�ʏ��,吐��@������,2024/4/1 23:10,-1.98,0
�͐쐅�ʏ��,吐��@������,2024/4/1 23:20,-1.98,0
�͐쐅�ʏ��,吐��@������,2024/4/1 23:30,-1.98,0
�͐쐅�ʏ��,吐��@������,2024/4/1 23:40,-1.98,0
�͐쐅�ʏ��,吐��@������,2024/4/1 23:50,-1.98,0
�͐쐅�ʏ��,吐��@������,2024/4/2 0:00,-1.98,0
�͐쐅�ʏ��,吐��@������,2024/4/2 0:10,-1.98,0
�͐쐅�ʏ��,吐��@������,2024/4/2 0:20,-1.98,0
�͐쐅�ʏ��,吐��@������,2024/4/2 0:30,-1.98,0
�͐쐅�ʏ��,吐��@������,2024/4/2 0:40,-1.98,0
�͐쐅�ʏ��,吐��@������,2024/4/2 0:50,-1.98,0
�͐쐅�ʏ��,吐��@������,2024/4/2 1:00,-1.98,0
�͐쐅�ʏ��,吐��@������,2024/4/2 1:10,-1.98,0
�͐쐅�ʏ��,吐��@������,2024/4/2 1:20,-1.98,0
�͐쐅�ʏ��,吐��@������,2024/4/2 1:30,-1.98,0
�͐쐅�ʏ��,吐��@������,2024/4/2 1:40,-1.98,0
�͐쐅�ʏ��,吐��@������,2024/4/2 1:50,-1.98,0
�͐쐅�ʏ��,吐��@������,2024/4/2 2:00,-1.98,0
�͐쐅�ʏ��,吐��@������,2024/4/2 2:10,-1.98,0
�͐쐅�ʏ��,吐��@������,2024/4/2 2:20,-1.98,0
�͐쐅�ʏ��,吐��@������,2024/4/2 2:30,-1.98,0
�͐쐅�ʏ��,吐��@������,2024/4/2 2:40,-1.98,0
�͐쐅�ʏ��,吐��@������,2024/4/2 2:50,-1.98,0
�͐쐅�ʏ��,吐��@������,2024/4/2 3:00,-1.98,0
�͐쐅�ʏ��,吐��@������,2024/4/2 3:10,-1.98,0
�͐쐅�ʏ��,吐��@������,2024/4/2 3:20,-1.98,0
�͐쐅�ʏ��,吐��@������,2024/4/2 3:30,-1.98,0
�͐쐅�ʏ��,吐��@������,2024/4/2 3:40,-1.98,0
�͐쐅�ʏ��,吐��@������,2024/4/2 3:50,-1.98,0
�͐쐅�ʏ��,吐��@������,2024/4/2 4:00,-1.98,0
�͐쐅�ʏ��,吐��@������,2024/4/2 4:10,-1.98,0
�͐쐅�ʏ��,吐��@������,2024/4/2 4:20,-1.98,0
�͐쐅�ʏ��,吐��@������,2024/4/2 4:30,-1.98,0
�͐쐅�ʏ��,吐��@������,2024/4/2 4:40,-1.98,0
�͐쐅�ʏ��,吐��@������,2024/4/2 4:50,-1.98,0
�͐쐅�ʏ��,吐��@������,2024/4/2 5:00,-1.98,0
�͐쐅�ʏ��,吐��@������,2024/4/2 5:10,-1.98,0
�͐쐅�ʏ��,吐��@������,2024/4/2 5:20,-1.98,0
�͐쐅�ʏ��,吐��@������,2024/4/2 5:30,-1.98,0
�͐쐅�ʏ��,吐��@������,2024/4/2 5:40,-1.98,0
�͐쐅�ʏ��,吐��@������,2024/4/2 5:50,-1.98,0
�͐쐅�ʏ��,吐��@������,2024/4/2 6:00,-1.98,0
�͐쐅�ʏ��,吐��@������,2024/4/2 6:10,-1.98,0
�͐쐅�ʏ��,吐��@������,2024/4/2 6:20,-1.98,0
�͐쐅�ʏ��,吐��@������,2024/4/2 6:30,-1.98,0
�͐쐅�ʏ��,吐��@������,2024/4/2 6:40,-1.98,0
�͐쐅�ʏ��,吐��@������,2024/4/2 6:50,-1.98,0
�͐쐅�ʏ��,吐��@������,2024/4/2 7:00,-1.98,0
�͐쐅�ʏ��,吐��@������,2024/4/2 7:10,-1.98,0
�͐쐅�ʏ��,吐��@������,2024/4/2 7:20,-1.98,0
�͐쐅�ʏ��,吐��@������,2024/4/2 7:30,-1.98,0
�͐쐅�ʏ��,吐��@������,2024/4/2 7:40,-1.98,0
�͐쐅�ʏ��,吐��@������,2024/4/2 7:50,-1.98,0
�͐쐅�ʏ��,吐��@������,2024/4/2 8:00,-1.98,0
�͐쐅�ʏ��,吐��@������,2024/4/2 8:10,-1.98,0
�͐쐅�ʏ��,吐��@������,2024/4/2 8:20,-1.98,0
�͐쐅�ʏ��,吐��@������,2024/4/2 8:30,-1.98,0
�͐쐅�ʏ��,吐��@������,2024/4/2 8:40,-1.98,0
�͐쐅�ʏ��,吐��@������,2024/4/2 8:50,-1.98,0
�͐쐅�ʏ��,吐��@������,2024/4/2 9:00,-1.98,0
�͐쐅�ʏ��,吐��@������,2024/4/2 9:10,-1.98,0
�͐쐅�ʏ��,吐��@������,2024/4/2 9:20,-1.98,0
�͐쐅�ʏ��,吐��@������,2024/4/2 9:30,-1.99,0
�͐쐅�ʏ��,吐��@������,2024/4/2 9:40,-1.98,0
�͐쐅�ʏ��,吐��@������,2024/4/2 9:50,-1.99,0
�͐쐅�ʏ��,吐��@������,2024/4/2 10:00,-1.99,0
�͐쐅�ʏ��,吐��@������,2024/4/2 10:10,-1.98,0
�͐쐅�ʏ��,吐��@������,2024/4/2 10:20,-1.99,0
�͐쐅�ʏ��,吐��@������,2024/4/2 10:30,-1.99,0
�͐쐅�ʏ��,吐��@������,2024/4/2 10:40,-1.99,0
�͐쐅�ʏ��,吐��@������,2024/4/2 10:50,-1.99,0
�͐쐅�ʏ��,吐��@������,2024/4/2 11:00,-1.99,0
�͐쐅�ʏ��,吐��@������,2024/4/2 11:10,-1.99,0
�͐쐅�ʏ��,吐��@������,2024/4/2 11:20,-1.99,0
�͐쐅�ʏ��,吐��@������,2024/4/2 11:30,-1.99,0
�͐쐅�ʏ��,吐��@������,2024/4/2 11:40,-1.99,0
�͐쐅�ʏ��,吐��@������,2024/4/2 11:50,-1.99,0
�͐쐅�ʏ��,吐��@������,2024/4/2 12:00,-1.99,0
�͐쐅�ʏ��,吐��@������,2024/4/2 12:10,-1.99,0
�͐쐅�ʏ��,吐��@������,2024/4/2 12:20,-1.99,0
�͐쐅�ʏ��,吐��@������,2024/4/2 12:30,-1.99,0
�͐쐅�ʏ��,吐��@������,2024/4/2 12:40,-1.99,0
�͐쐅�ʏ��,吐��@������,2024/4/2 12:50,-1.99,0
�͐쐅�ʏ��,吐��@������,2024/4/2 13:00,-1.99,0
�͐쐅�ʏ��,吐��@������,2024/4/2 13:10,-1.99,0
�͐쐅�ʏ��,吐��@������,2024/4/2 13:20,-1.99,0
�͐쐅�ʏ��,吐��@������,2024/4/2 13:30,-1.99,0
�͐쐅�ʏ��,吐��@������,2024/4/2 13:40,-1.99,0
�͐쐅�ʏ��,吐��@������,2024/4/2 13:50,-1.99,0
�͐쐅�ʏ��,吐��@������,2024/4/2 14:00,-1.99,0
�͐쐅�ʏ��,吐��@������,2024/4/2 14:10,-1.99,0
�͐쐅�ʏ��,吐��@������,2024/4/2 14:20,-1.99,0
�͐쐅�ʏ��,吐��@������,2024/4/2 14:30,-1.99,0
�͐쐅�ʏ��,吐��@������,2024/4/2 14:40,-1.99,0
�͐쐅�ʏ��,吐��@������,2024/4/2 14:50,-1.99,0
�͐쐅�ʏ��,吐��@������,2024/4/2 15:00,-1.99,0
�͐쐅�ʏ��,吐��@������,2024/4/2 15:10,-1.99,0
�͐쐅�ʏ��,吐��@������,2024/4/2 15:20,-1.99,0
�͐쐅�ʏ��,吐��@������,2024/4/2 15:30,-1.99,0
�͐쐅�ʏ��,吐��@������,2024/4/2 15:40,-1.99,0
�͐쐅�ʏ��,吐��@������,2024/4/2 15:50,-1.99,0
�͐쐅�ʏ��,吐��@������,2024/4/2 16:00,-1.99,0
�͐쐅�ʏ��,吐��@������,2024/4/2 16:10,-1.99,0
�͐쐅�ʏ��,吐��@������,2024/4/2 16:20,-1.98,0
�͐쐅�ʏ��,吐��@������,2024/4/2 16:30,-1.98,0
�͐쐅�ʏ��,吐��@������,2024/4/2 16:40,-1.98,0
�͐쐅�ʏ��,吐��@������,2024/4/2 16:50,-1.98,0
�͐쐅�ʏ��,吐��@������,2024/4/2 17:00,-1.98,0
�͐쐅�ʏ��,吐��@������,2024/4/2 17:10,-1.98,0
�͐쐅�ʏ��,吐��@������,2024/4/2 17:20,-1.98,0
�͐쐅�ʏ��,吐��@������,2024/4/2 17:30,-1.98,0
�͐쐅�ʏ��,吐��@������,2024/4/2 17:40,-1.98,0
�͐쐅�ʏ��,吐��@������,2024/4/2 17:50,-1.98,0
�͐쐅�ʏ��,吐��@������,2024/4/2 18:00,-1.98,0
�͐쐅�ʏ��,吐��@������,2024/4/2 18:10,-1.98,0
�͐쐅�ʏ��,吐��@������,2024/4/2 18:20,-1.98,0
�͐쐅�ʏ��,吐��@������,2024/4/2 18:30,-1.98,0
�͐쐅�ʏ��,吐��@������,2024/4/2 18:40,-1.98,0
�͐쐅�ʏ��,吐��@������,2024/4/2 18:50,-1.98,0
�͐쐅�ʏ��,吐��@������,2024/4/2 19:00,-1.98,0
�͐쐅�ʏ��,吐��@������,2024/4/2 19:10,-1.98,0
�͐쐅�ʏ��,吐��@������,2024/4/2 19:20,-1.98,0
�͐쐅�ʏ��,吐��@������,2024/4/2 19:30,-1.98,0
�͐쐅�ʏ��,吐��@������,2024/4/2 19:40,-1.98,0
�͐쐅�ʏ��,吐��@������,2024/4/2 19:50,-1.98,0
�͐쐅�ʏ��,吐��@������,2024/4/2 20:00,-1.98,0
�͐쐅�ʏ��,吐��@������,2024/4/2 20:10,-1.98,0
�͐쐅�ʏ��,吐��@������,2024/4/2 20:20,-1.98,0
�͐쐅�ʏ��,吐��@������,2024/4/2 20:30,-1.98,0
�͐쐅�ʏ��,吐��@������,2024/4/2 20:40,-1.98,0
�͐쐅�ʏ��,吐��@������,2024/4/2 20:50,-1.98,0
�͐쐅�ʏ��,吐��@������,2024/4/2 21:00,-1.98,0
�͐쐅�ʏ��,吐��@������,2024/4/2 21:10,-1.98,0
�͐쐅�ʏ��,吐��@������,2024/4/2 21:20,-1.98,0
�͐쐅�ʏ��,吐��@������,2024/4/2 21:30,-1.98,0
�͐쐅�ʏ��,吐��@������,2024/4/2 21:40,-1.98,0
�͐쐅�ʏ��,吐��@������,2024/4/2 21:50,-1.98,0
�͐쐅�ʏ��,吐��@������,2024/4/2 22:00,-1.98,0
�͐쐅�ʏ��,吐��@������,2024/4/2 22:10,-1.98,0
�͐쐅�ʏ��,吐��@������,2024/4/2 22:20,-1.98,0
�͐쐅�ʏ��,吐��@������,2024/4/2 22:30,-1.98,0
�͐쐅�ʏ��,吐��@������,2024/4/2 22:40,-1.98,0
�͐쐅�ʏ��,吐��@������,2024/4/2 22:50,-1.98,0
�͐쐅�ʏ��,吐��@������,2024/4/2 23:00,-1.98,0
�͐쐅�ʏ��,吐��@������,2024/4/2 23:10,-1.98,0
�͐쐅�ʏ��,吐��@������,2024/4/2 23:20,-1.98,0
�͐쐅�ʏ��,吐��@������,2024/4/2 23:30,-1.98,0
�͐쐅�ʏ��,吐��@������,2024/4/2 23:40,-1.98,0
�͐쐅�ʏ��,吐��@������,2024/4/2 23:50,-1.98,0
�͐쐅�ʏ��,吐��@������,2024/4/3 0:00,-1.98,0
�͐쐅�ʏ��,吐��@������,2024/4/3 0:10,-1.98,0
�͐쐅�ʏ��,吐��@������,2024/4/3 0:20,-1.98,0
�͐쐅�ʏ��,吐��@������,2024/4/3 0:30,-1.98,0
�͐쐅�ʏ��,吐��@������,2024/4/3 0:40,-1.98,0
�͐쐅�ʏ��,吐��@������,2024/4/3 0:50,-1.98,0
�͐쐅�ʏ��,吐��@������,2024/4/3 1:00,-1.98,0
�͐쐅�ʏ��,吐��@������,2024/4/3 1:10,-1.98,0
�͐쐅�ʏ��,吐��@������,2024/4/3 1:20,-1.98,0
�͐쐅�ʏ��,吐��@������,2024/4/3 1:30,-1.98,0
�͐쐅�ʏ��,吐��@������,2024/4/3 1:40,-1.98,0
�͐쐅�ʏ��,吐��@������,2024/4/3 1:50,-1.98,0
�͐쐅�ʏ��,吐��@������,2024/4/3 2:00,-1.98,0
�͐쐅�ʏ��,吐��@������,2024/4/3 2:10,-1.98,0
�͐쐅�ʏ��,吐��@������,2024/4/3 2:20,-1.98,0
�͐쐅�ʏ��,吐��@������,2024/4/3 2:30,-1.98,0
�͐쐅�ʏ��,吐��@������,2024/4/3 2:40,-1.98,0
�͐쐅�ʏ��,吐��@������,2024/4/3 2:50,-1.98,0
�͐쐅�ʏ��,吐��@������,2024/4/3 3:00,-1.98,0
�͐쐅�ʏ��,吐��@������,2024/4/3 3:10,-1.98,0
�͐쐅�ʏ��,吐��@������,2024/4/3 3:20,-1.98,0
�͐쐅�ʏ��,吐��@������,2024/4/3 3:30,-1.98,0
�͐쐅�ʏ��,吐��@������,2024/4/3 3:40,-1.98,0
�͐쐅�ʏ��,吐��@������,2024/4/3 3:50,-1.98,0
�͐쐅�ʏ��,吐��@������,2024/4/3 4:00,-1.98,0
�͐쐅�ʏ��,吐��@������,2024/4/3 4:10,-1.98,0
�͐쐅�ʏ��,吐��@������,2024/4/3 4:20,-1.98,0
�͐쐅�ʏ��,吐��@������,2024/4/3 4:30,-1.98,0
�͐쐅�ʏ��,吐��@������,2024/4/3 4:40,-1.98,0
�͐쐅�ʏ��,吐��@������,2024/4/3 4:50,-1.98,0
�͐쐅�ʏ��,吐��@������,2024/4/3 5:00,-1.98,0
�͐쐅�ʏ��,吐��@������,2024/4/3 5:10,-1.98,0
�͐쐅�ʏ��,吐��@������,2024/4/3 5:20,-1.98,0
�͐쐅�ʏ��,吐��@������,2024/4/3 5:30,-1.98,0
�͐쐅�ʏ��,吐��@������,2024/4/3 5:40,-1.98,0
�͐쐅�ʏ��,吐��@������,2024/4/3 5:50,-1.98,0
�͐쐅�ʏ��,吐��@������,2024/4/3 6:00,-1.98,0
�͐쐅�ʏ��,吐��@������,2024/4/3 6:10,-1.98,0
�͐쐅�ʏ��,吐��@������,2024/4/3 6:20,-1.98,0
�͐쐅�ʏ��,吐��@������,2024/4/3 6:30,-1.98,0
�͐쐅�ʏ��,吐��@������,2024/4/3 6:40,-1.98,0
�͐쐅�ʏ��,吐��@������,2024/4/3 6:50,-1.98,0
�͐쐅�ʏ��,吐��@������,2024/4/3 7:00,-1.98,0
�͐쐅�ʏ��,吐��@������,2024/4/3 7:10,-1.98,0
�͐쐅�ʏ��,吐��@������,2024/4/3 7:20,-1.98,0
�͐쐅�ʏ��,吐��@������,2024/4/3 7:30,-1.98,0
�͐쐅�ʏ��,吐��@������,2024/4/3 7:40,-1.98,0
�͐쐅�ʏ��,吐��@������,2024/4/3 7:50,-1.98,0
�͐쐅�ʏ��,吐��@������,2024/4/3 8:00,-1.98,0
�͐쐅�ʏ��,吐��@������,2024/4/3 8:10,-1.98,0
�͐쐅�ʏ��,吐��@������,2024/4/3 8:20,-1.98,0
�͐쐅�ʏ��,吐��@������,2024/4/3 8:30,-1.98,0
�͐쐅�ʏ��,吐��@������,2024/4/3 8:40,-1.98,0
�͐쐅�ʏ��,吐��@������,2024/4/3 8:50,-1.98,0
�͐쐅�ʏ��,吐��@������,2024/4/3 9:00,-1.98,0
�͐쐅�ʏ��,吐��@������,2024/4/3 9:10,-1.98,0
�͐쐅�ʏ��,吐��@������,2024/4/3 9:20,-1.98,0
�͐쐅�ʏ��,吐��@������,2024/4/3 9:30,-1.98,0
�͐쐅�ʏ��,吐��@������,2024/4/3 9:40,-1.98,0
�͐쐅�ʏ��,吐��@������,2024/4/3 9:50,-1.98,0
�͐쐅�ʏ��,吐��@������,2024/4/3 10:00,-1.98,0
�͐쐅�ʏ��,吐��@������,2024/4/3 10:10,-1.98,0
�͐쐅�ʏ��,吐��@������,2024/4/3 10:20,-1.98,0
�͐쐅�ʏ��,吐��@������,2024/4/3 10:30,-1.98,0
�͐쐅�ʏ��,吐��@������,2024/4/3 10:40,-1.98,0
�͐쐅�ʏ��,吐��@������,2024/4/3 10:50,-1.98,0
�͐쐅�ʏ��,吐��@������,2024/4/3 11:00,-1.98,0
�͐쐅�ʏ��,吐��@������,2024/4/3 11:10,-1.98,0
�͐쐅�ʏ��,吐��@������,2024/4/3 11:20,-1.98,0
�͐쐅�ʏ��,吐��@������,2024/4/3 11:30,-1.98,0
�͐쐅�ʏ��,吐��@������,2024/4/3 11:40,-1.98,0
�͐쐅�ʏ��,吐��@������,2024/4/3 11:50,-1.98,0
�͐쐅�ʏ��,吐��@������,2024/4/3 12:00,-1.98,0
�͐쐅�ʏ��,吐��@������,2024/4/3 12:10,-1.99,0
�͐쐅�ʏ��,吐��@������,2024/4/3 12:20,-1.99,0
�͐쐅�ʏ��,吐��@������,2024/4/3 12:30,-1.99,0
�͐쐅�ʏ��,吐��@������,2024/4/3 12:40,-1.99,0
�͐쐅�ʏ��,吐��@������,2024/4/3 12:50,-1.99,0
�͐쐅�ʏ��,吐��@������,2024/4/3 13:00,-1.99,0.5
�͐쐅�ʏ��,吐��@������,2024/4/3 13:10,-1.99,0
�͐쐅�ʏ��,吐��@������,2024/4/3 13:20,-1.99,0
�͐쐅�ʏ��,吐��@������,2024/4/3 13:30,-1.99,0.5
�͐쐅�ʏ��,吐��@������,2024/4/3 13:40,-1.99,0
�͐쐅�ʏ��,吐��@������,2024/4/3 13:50,-1.99,0
�͐쐅�ʏ��,吐��@������,2024/4/3 14:00,-1.99,0.5
�͐쐅�ʏ��,吐��@������,2024/4/3 14:10,-1.98,0
�͐쐅�ʏ��,吐��@������,2024/4/3 14:20,-1.99,0
�͐쐅�ʏ��,吐��@������,2024/4/3 14:30,-1.98,0.5
�͐쐅�ʏ��,吐��@������,2024/4/3 14:40,-1.98,0
�͐쐅�ʏ��,吐��@������,2024/4/3 14:50,-1.98,0.5
�͐쐅�ʏ��,吐��@������,2024/4/3 15:00,-1.98,0
�͐쐅�ʏ��,吐��@������,2024/4/3 15:10,-1.98,0
�͐쐅�ʏ��,吐��@������,2024/4/3 15:20,-1.98,0.5
�͐쐅�ʏ��,吐��@������,2024/4/3 15:30,-1.98,0
�͐쐅�ʏ��,吐��@������,2024/4/3 15:40,-1.97,0.5
�͐쐅�ʏ��,吐��@������,2024/4/3 15:50,-1.97,0.5
�͐쐅�ʏ��,吐��@������,2024/4/3 16:00,-1.97,0.5
�͐쐅�ʏ��,吐��@������,2024/4/3 16:10,-1.97,0.5
�͐쐅�ʏ��,吐��@������,2024/4/3 16:20,-1.96,1
�͐쐅�ʏ��,吐��@������,2024/4/3 16:30,-1.95,1
�͐쐅�ʏ��,吐��@������,2024/4/3 16:40,-1.94,1
�͐쐅�ʏ��,吐��@������,2024/4/3 16:50,-1.93,1
�͐쐅�ʏ��,吐��@������,2024/4/3 17:00,-1.92,1
�͐쐅�ʏ��,吐��@������,2024/4/3 17:10,-1.92,1
�͐쐅�ʏ��,吐��@������,2024/4/3 17:20,-1.91,1
�͐쐅�ʏ��,吐��@������,2024/4/3 17:30,-1.91,0.5
�͐쐅�ʏ��,吐��@������,2024/4/3 17:40,-1.91,1
�͐쐅�ʏ��,吐��@������,2024/4/3 17:50,-1.91,1
�͐쐅�ʏ��,吐��@������,2024/4/3 18:00,-1.9,1
�͐쐅�ʏ��,吐��@������,2024/4/3 18:10,-1.9,1
�͐쐅�ʏ��,吐��@������,2024/4/3 18:20,-1.9,1
�͐쐅�ʏ��,吐��@������,2024/4/3 18:30,-1.89,1
�͐쐅�ʏ��,吐��@������,2024/4/3 18:40,-1.89,0.5
�͐쐅�ʏ��,吐��@������,2024/4/3 18:50,-1.89,0.5
�͐쐅�ʏ��,吐��@������,2024/4/3 19:00,-1.9,0.5
�͐쐅�ʏ��,吐��@������,2024/4/3 19:10,-1.9,1
�͐쐅�ʏ��,吐��@������,2024/4/3 19:20,-1.9,1
�͐쐅�ʏ��,吐��@������,2024/4/3 19:30,-1.9,0.5
�͐쐅�ʏ��,吐��@������,2024/4/3 19:40,-1.9,0.5
�͐쐅�ʏ��,吐��@������,2024/4/3 19:50,-1.9,1
�͐쐅�ʏ��,吐��@������,2024/4/3 20:00,-1.9,0.5
�͐쐅�ʏ��,吐��@������,2024/4/3 20:10,-1.91,1
�͐쐅�ʏ��,吐��@������,2024/4/3 20:20,-1.9,0.5
�͐쐅�ʏ��,吐��@������,2024/4/3 20:30,-1.91,0.5
�͐쐅�ʏ��,吐��@������,2024/4/3 20:40,-1.91,0.5
�͐쐅�ʏ��,吐��@������,2024/4/3 20:50,-1.91,0.5
�͐쐅�ʏ��,吐��@������,2024/4/3 21:00,-1.91,0.5
�͐쐅�ʏ��,吐��@������,2024/4/3 21:10,-1.91,0.5
�͐쐅�ʏ��,吐��@������,2024/4/3 21:20,-1.91,0.5
�͐쐅�ʏ��,吐��@������,2024/4/3 21:30,-1.91,0.5
�͐쐅�ʏ��,吐��@������,2024/4/3 21:40,-1.91,0.5
�͐쐅�ʏ��,吐��@������,2024/4/3 21:50,-1.91,0.5
�͐쐅�ʏ��,吐��@������,2024/4/3 22:00,-1.92,0.5
�͐쐅�ʏ��,吐��@������,2024/4/3 22:10,-1.92,0
�͐쐅�ʏ��,吐��@������,2024/4/3 22:20,-1.92,0.5
�͐쐅�ʏ��,吐��@������,2024/4/3 22:30,-1.92,0.5
�͐쐅�ʏ��,吐��@������,2024/4/3 22:40,-1.92,0.5
�͐쐅�ʏ��,吐��@������,2024/4/3 22:50,-1.92,0.5
�͐쐅�ʏ��,吐��@������,2024/4/3 23:00,-1.92,0.5
�͐쐅�ʏ��,吐��@������,2024/4/3 23:10,-1.92,0
�͐쐅�ʏ��,吐��@������,2024/4/3 23:20,-1.92,0.5
�͐쐅�ʏ��,吐��@������,2024/4/3 23:30,-1.93,0.5
�͐쐅�ʏ��,吐��@������,2024/4/3 23:40,-1.93,0
�͐쐅�ʏ��,吐��@������,2024/4/3 23:50,-1.93,0
�͐쐅�ʏ��,吐��@������,2024/4/4 0:00,-1.93,0.5
�͐쐅�ʏ��,吐��@������,2024/4/4 0:10,-1.93,0.5
�͐쐅�ʏ��,吐��@������,2024/4/4 0:20,-1.93,0
�͐쐅�ʏ��,吐��@������,2024/4/4 0:30,-1.94,0.5
�͐쐅�ʏ��,吐��@������,2024/4/4 0:40,-1.94,0.5
�͐쐅�ʏ��,吐��@������,2024/4/4 0:50,-1.94,0
�͐쐅�ʏ��,吐��@������,2024/4/4 1:00,-1.94,0
�͐쐅�ʏ��,吐��@������,2024/4/4 1:10,-1.94,0.5
�͐쐅�ʏ��,吐��@������,2024/4/4 1:20,-1.94,0.5
�͐쐅�ʏ��,吐��@������,2024/4/4 1:30,-1.94,0.5
�͐쐅�ʏ��,吐��@������,2024/4/4 1:40,-1.94,0.5
�͐쐅�ʏ��,吐��@������,2024/4/4 1:50,-1.94,0
�͐쐅�ʏ��,吐��@������,2024/4/4 2:00,-1.93,0.5
�͐쐅�ʏ��,吐��@������,2024/4/4 2:10,-1.94,0
�͐쐅�ʏ��,吐��@������,2024/4/4 2:20,-1.94,0.5
�͐쐅�ʏ��,吐��@������,2024/4/4 2:30,-1.93,0.5
�͐쐅�ʏ��,吐��@������,2024/4/4 2:40,-1.94,0
�͐쐅�ʏ��,吐��@������,2024/4/4 2:50,-1.94,0.5
�͐쐅�ʏ��,吐��@������,2024/4/4 3:00,-1.93,0.5
�͐쐅�ʏ��,吐��@������,2024/4/4 3:10,-1.94,0.5
�͐쐅�ʏ��,吐��@������,2024/4/4 3:20,-1.94,0
�͐쐅�ʏ��,吐��@������,2024/4/4 3:30,-1.94,0
�͐쐅�ʏ��,吐��@������,2024/4/4 3:40,-1.94,0.5
�͐쐅�ʏ��,吐��@������,2024/4/4 3:50,-1.94,0.5
�͐쐅�ʏ��,吐��@������,2024/4/4 4:00,-1.94,0
�͐쐅�ʏ��,吐��@������,2024/4/4 4:10,-1.94,0.5
�͐쐅�ʏ��,吐��@������,2024/4/4 4:20,-1.94,0
�͐쐅�ʏ��,吐��@������,2024/4/4 4:30,-1.94,0.5
�͐쐅�ʏ��,吐��@������,2024/4/4 4:40,-1.94,0
�͐쐅�ʏ��,吐��@������,2024/4/4 4:50,-1.94,0
�͐쐅�ʏ��,吐��@������,2024/4/4 5:00,-1.94,0.5
�͐쐅�ʏ��,吐��@������,2024/4/4 5:10,-1.94,0
�͐쐅�ʏ��,吐��@������,2024/4/4 5:20,-1.94,0.5
�͐쐅�ʏ��,吐��@������,2024/4/4 5:30,-1.94,0
�͐쐅�ʏ��,吐��@������,2024/4/4 5:40,-1.94,0.5
�͐쐅�ʏ��,吐��@������,2024/4/4 5:50,-1.94,0
�͐쐅�ʏ��,吐��@������,2024/4/4 6:00,-1.94,0
�͐쐅�ʏ��,吐��@������,2024/4/4 6:10,-1.94,0.5
�͐쐅�ʏ��,吐��@������,2024/4/4 6:20,-1.94,0
�͐쐅�ʏ��,吐��@������,2024/4/4 6:30,-1.94,0.5
�͐쐅�ʏ��,吐��@������,2024/4/4 6:40,-1.94,0
�͐쐅�ʏ��,吐��@������,2024/4/4 6:50,-1.94,0
�͐쐅�ʏ��,吐��@������,2024/4/4 7:00,-1.94,0.5
�͐쐅�ʏ��,吐��@������,2024/4/4 7:10,-1.95,0
�͐쐅�ʏ��,吐��@������,2024/4/4 7:20,-1.95,0
�͐쐅�ʏ��,吐��@������,2024/4/4 7:30,-1.95,0
�͐쐅�ʏ��,吐��@������,2024/4/4 7:40,-1.95,0
�͐쐅�ʏ��,吐��@������,2024/4/4 7:50,-1.95,0
�͐쐅�ʏ��,吐��@������,2024/4/4 8:00,-1.96,0
�͐쐅�ʏ��,吐��@������,2024/4/4 8:10,-1.96,0
�͐쐅�ʏ��,吐��@������,2024/4/4 8:20,-1.96,0
�͐쐅�ʏ��,吐��@������,2024/4/4 8:30,-1.96,0
�͐쐅�ʏ��,吐��@������,2024/4/4 8:40,-1.96,0
�͐쐅�ʏ��,吐��@������,2024/4/4 8:50,-1.96,0
�͐쐅�ʏ��,吐��@������,2024/4/4 9:00,-1.96,0
�͐쐅�ʏ��,吐��@������,2024/4/4 9:10,-1.96,0
�͐쐅�ʏ��,吐��@������,2024/4/4 9:20,-1.95,0
�͐쐅�ʏ��,吐��@������,2024/4/4 9:30,-1.95,0
�͐쐅�ʏ��,吐��@������,2024/4/4 9:40,-1.95,0
�͐쐅�ʏ��,吐��@������,2024/4/4 9:50,-1.95,0
�͐쐅�ʏ��,吐��@������,2024/4/4 10:00,-1.95,0
�͐쐅�ʏ��,吐��@������,2024/4/4 10:10,-1.96,0
�͐쐅�ʏ��,吐��@������,2024/4/4 10:20,-1.95,0
�͐쐅�ʏ��,吐��@������,2024/4/4 10:30,-1.95,0
�͐쐅�ʏ��,吐��@������,2024/4/4 10:40,-1.96,0
�͐쐅�ʏ��,吐��@������,2024/4/4 10:50,-1.96,0
�͐쐅�ʏ��,吐��@������,2024/4/4 11:00,-1.96,0
�͐쐅�ʏ��,吐��@������,2024/4/4 11:10,-1.96,0
�͐쐅�ʏ��,吐��@������,2024/4/4 11:20,-1.96,0
�͐쐅�ʏ��,吐��@������,2024/4/4 11:30,-1.96,0
�͐쐅�ʏ��,吐��@������,2024/4/4 11:40,-1.96,0
�͐쐅�ʏ��,吐��@������,2024/4/4 11:50,-1.96,0
�͐쐅�ʏ��,吐��@������,2024/4/4 12:00,-1.96,0
�͐쐅�ʏ��,吐��@������,2024/4/4 12:10,-1.96,0
�͐쐅�ʏ��,吐��@������,2024/4/4 12:20,-1.96,0
�͐쐅�ʏ��,吐��@������,2024/4/4 12:30,-1.96,0
�͐쐅�ʏ��,吐��@������,2024/4/4 12:40,-1.96,0
�͐쐅�ʏ��,吐��@������,2024/4/4 12:50,-1.96,0
�͐쐅�ʏ��,吐��@������,2024/4/4 13:00,-1.96,0
�͐쐅�ʏ��,吐��@������,2024/4/4 13:10,-1.96,0
�͐쐅�ʏ��,吐��@������,2024/4/4 13:20,-1.96,0
�͐쐅�ʏ��,吐��@������,2024/4/4 13:30,-1.96,0
�͐쐅�ʏ��,吐��@������,2024/4/4 13:40,-1.96,0
�͐쐅�ʏ��,吐��@������,2024/4/4 13:50,-1.96,0
�͐쐅�ʏ��,吐��@������,2024/4/4 14:00,-1.96,0
�͐쐅�ʏ��,吐��@������,2024/4/4 14:10,-1.96,0
�͐쐅�ʏ��,吐��@������,2024/4/4 14:20,-1.97,0
�͐쐅�ʏ��,吐��@������,2024/4/4 14:30,-1.97,0
�͐쐅�ʏ��,吐��@������,2024/4/4 14:40,-1.97,0
�͐쐅�ʏ��,吐��@������,2024/4/4 14:50,-1.97,0
�͐쐅�ʏ��,吐��@������,2024/4/4 15:00,-1.97,0
�͐쐅�ʏ��,吐��@������,2024/4/4 15:10,-1.97,0
�͐쐅�ʏ��,吐��@������,2024/4/4 15:20,-1.97,0
�͐쐅�ʏ��,吐��@������,2024/4/4 15:30,-1.97,0
�͐쐅�ʏ��,吐��@������,2024/4/4 15:40,-1.97,0
�͐쐅�ʏ��,吐��@������,2024/4/4 15:50,-1.97,0
�͐쐅�ʏ��,吐��@������,2024/4/4 16:00,-1.97,0
�͐쐅�ʏ��,吐��@������,2024/4/4 16:10,-1.97,0
�͐쐅�ʏ��,吐��@������,2024/4/4 16:20,-1.97,0
�͐쐅�ʏ��,吐��@������,2024/4/4 16:30,-1.97,0
�͐쐅�ʏ��,吐��@������,2024/4/4 16:40,-1.97,0
�͐쐅�ʏ��,吐��@������,2024/4/4 16:50,-1.97,0
�͐쐅�ʏ��,吐��@������,2024/4/4 17:00,-1.97,0
�͐쐅�ʏ��,吐��@������,2024/4/4 17:10,-1.97,0
�͐쐅�ʏ��,吐��@������,2024/4/4 17:20,-1.97,0
�͐쐅�ʏ��,吐��@������,2024/4/4 17:30,-1.97,0
�͐쐅�ʏ��,吐��@������,2024/4/4 17:40,-1.97,0
�͐쐅�ʏ��,吐��@������,2024/4/4 17:50,-1.97,0
�͐쐅�ʏ��,吐��@������,2024/4/4 18:00,-1.97,0
�͐쐅�ʏ��,吐��@������,2024/4/4 18:10,-1.97,0
�͐쐅�ʏ��,吐��@������,2024/4/4 18:20,-1.97,0
�͐쐅�ʏ��,吐��@������,2024/4/4 18:30,-1.97,0
�͐쐅�ʏ��,吐��@������,2024/4/4 18:40,-1.97,0
�͐쐅�ʏ��,吐��@������,2024/4/4 18:50,-1.97,0
�͐쐅�ʏ��,吐��@������,2024/4/4 19:00,-1.97,0
�͐쐅�ʏ��,吐��@������,2024/4/4 19:10,-1.97,0
�͐쐅�ʏ��,吐��@������,2024/4/4 19:20,-1.97,0
�͐쐅�ʏ��,吐��@������,2024/4/4 19:30,-1.97,0
�͐쐅�ʏ��,吐��@������,2024/4/4 19:40,-1.97,0
�͐쐅�ʏ��,吐��@������,2024/4/4 19:50,-1.97,0
�͐쐅�ʏ��,吐��@������,2024/4/4 20:00,-1.97,0
�͐쐅�ʏ��,吐��@������,2024/4/4 20:10,-1.97,0
�͐쐅�ʏ��,吐��@������,2024/4/4 20:20,-1.97,0
�͐쐅�ʏ��,吐��@������,2024/4/4 20:30,-1.97,0
�͐쐅�ʏ��,吐��@������,2024/4/4 20:40,-1.97,0
�͐쐅�ʏ��,吐��@������,2024/4/4 20:50,-1.97,0
�͐쐅�ʏ��,吐��@������,2024/4/4 21:00,-1.97,0
�͐쐅�ʏ��,吐��@������,2024/4/4 21:10,-1.97,0